Location: Bridgewater
(44.3670°N, 64.5170°W)
Time: 08:34:55
(UTC-04:00)

Amateur Radio Satellites - All Passes

Search period start: 24 February 2017 08:04
Search period end: 25 February 2017 08:04
Location: Bridgewater, 44.3670°N, 64.5170°W

Satellite Date Start Highest point End Downlink Frequencies (MHz)
Time Altitude Azimuth
Oscar 11 24 Feb 08:06:15 08:08:04 12° 89° (E) 08:09:52 .
ISS 24 Feb 08:17:42 08:20:32 27° 138° (SE) 08:23:23 437.550
UWE-3 24 Feb 08:18:16 08:22:37 37° 96° (E) 08:26:54 435.000/436.395/437.385
CUTE-I 24 Feb 08:27:39 08:30:55 17° 302° (WNW) 08:34:11 437.470
AAUSAT CUBESAT 2 24 Feb 08:28:22 08:32:25 53° 100° (E) 08:36:25 437.432
SEEDS 24 Feb 08:34:50 08:38:59 63° 286° (WNW) 08:43:05 437.485
ZACube-1 24 Feb 08:42:35 08:46:54 39° 97° (E) 08:51:07 437.345
YUBILEINY 24 Feb 08:45:57 08:49:48 14° 72° (ENE) 08:53:36 435.215
Tancredo 1 24 Feb 08:46:22 08:49:32 50° 143° (SE) 08:52:42 437.200
O/OREOS (USA 219) 24 Feb 08:48:28 08:53:04 79° 67° (ENE) 08:57:39 437.305
BEESAT 3 24 Feb 08:58:11 08:59:41 12° 327° (NNW) 09:01:11 437.485
CUTE 1.7 + AOD 2 24 Feb 09:11:24 09:14:24 19° 295° (WNW) 09:17:23 437.475
FO-29 24 Feb 09:13:07 09:19:41 39° 63° (ENE) 09:26:43 435.910
CUBEBUG 2 24 Feb 09:14:15 09:18:42 41° 290° (WNW) 09:23:07 437.445
UNISAT 6 24 Feb 09:22:40 09:27:07 68° 74° (ENE) 09:31:43 437.425
TIGRISAT 24 Feb 09:23:25 09:27:51 64° 74° (ENE) 09:32:25 435.000
AO-73 24 Feb 09:31:46 09:36:20 71° 285° (WNW) 09:40:47 145.935
BEESAT 2 24 Feb 09:33:12 09:34:51 12° 326° (NNW) 09:36:31 435.950
PRISM 24 Feb 09:38:31 09:42:08 30° 263° (W) 09:45:45 437.425
Oscar 11 24 Feb 09:40:20 09:44:39 65° 286° (WNW) 09:48:54 .
HO-68 24 Feb 09:42:42 09:48:36 29° 302° (WNW) 09:54:31 435.675
ISS 24 Feb 09:53:39 09:56:52 49° 336° (NNW) 10:00:06 437.550
UWE-3 24 Feb 09:55:02 09:58:53 26° 294° (WNW) 10:02:42 435.000/436.395/437.385
AIST 2D 24 Feb 10:03:06 10:05:54 22° 68° (ENE) 10:08:42 435.315
AAUSAT CUBESAT 2 24 Feb 10:05:07 10:07:27 15° 297° (WNW) 10:09:46 437.432
DELFI C3 24 Feb 10:13:12 10:17:09 83° 284° (WNW) 10:21:04 145.870
ZACube-1 24 Feb 10:19:19 10:22:56 23° 295° (WNW) 10:26:30 437.345
Tancredo 1 24 Feb 10:22:56 10:25:56 33° 342° (NNW) 10:28:56 437.200
DUCHIFAT 1 24 Feb 10:30:13 10:33:46 27° 68° (ENE) 10:37:23 145.980
O/OREOS (USA 219) 24 Feb 10:30:25 10:31:47 11° 263° (W) 10:33:07 437.305
YUBILEINY 24 Feb 10:36:07 10:44:50 70° 93° (E) 10:53:34 435.215
EO-79 24 Feb 10:39:01 10:42:57 40° 70° (ENE) 10:46:56 145.935-145.965
POLYITAN 1 24 Feb 10:55:51 11:00:01 61° 74° (ENE) 11:04:15 437.675
NANOSAT C BR1 24 Feb 10:56:37 11:00:44 57° 73° (ENE) 11:04:55 145.865
FO-29 24 Feb 10:57:39 11:04:28 49° 264° (W) 11:11:56 435.910
QB50P2 24 Feb 10:58:43 11:02:56 71° 74° (ENE) 11:07:12 145.880/145.840
UNISAT 6 24 Feb 11:02:14 11:04:20 13° 272° (W) 11:06:28 437.425
TIGRISAT 24 Feb 11:02:42 11:05:01 14° 271° (W) 11:07:21 435.000
LO-87 24 Feb 11:19:57 11:23:33 76° 102° (ESE) 11:27:08 145.935 - 145.965
ESTCUBE 1 24 Feb 11:26:49 11:31:04 42° 98° (E) 11:35:19 437.505/2401.250
ISS 24 Feb 11:31:10 11:33:52 23° 356° (N) 11:36:34 437.550
BUGSAT 1 24 Feb 11:32:07 11:35:58 44° 71° (ENE) 11:39:53 437.445
AIST 2D 24 Feb 11:36:04 11:39:02 24° 265° (W) 11:42:01 435.315
Oscar 19 24 Feb 11:41:33 11:45:25 22° 62° (ENE) 11:49:16 437.125/150
50 SAT 24 Feb 11:54:52 11:57:05 16° 93° (E) 11:59:17 437.505
DX 1 24 Feb 11:55:15 11:57:01 12° 90° (E) 11:58:48 434.975-435.025
VELOX 1 24 Feb 11:57:51 12:01:44 29° 96° (E) 12:05:36 145.980
Tancredo 1 24 Feb 12:00:14 12:02:51 22° 2° (N) 12:05:28 437.200
AO-85 24 Feb 12:03:35 12:06:17 17° 39° (NE) 12:08:58 145.980
DUCHIFAT 1 24 Feb 12:05:46 12:09:23 28° 265° (W) 12:13:03 145.980
UKube-1 24 Feb 12:09:48 12:11:39 12° 90° (E) 12:13:29 .
SPROUT 24 Feb 12:15:07 12:19:08 37° 97° (E) 12:23:08 437.525
EO-79 24 Feb 12:15:50 12:18:53 19° 267° (W) 12:21:58 145.935-145.965
Gurwin Techsat 1B 24 Feb 12:16:07 12:20:24 26° 63° (ENE) 12:24:43 435.225
POLYITAN 1 24 Feb 12:34:18 12:36:13 13° 270° (W) 12:38:08 437.675
NANOSAT C BR1 24 Feb 12:34:43 12:36:50 13° 270° (W) 12:38:58 145.865
YUBILEINY 24 Feb 12:35:02 12:42:24 29° 295° (WNW) 12:49:47 435.215
QB50P2 24 Feb 12:38:03 12:39:13 11° 271° (W) 12:40:23 145.880/145.840
AO-7 24 Feb 13:01:29 13:07:45 24° 50° (NE) 13:14:00 .
ESTCUBE 1 24 Feb 13:04:14 13:07:37 21° 296° (WNW) 13:10:59 437.505/2401.250
ISS 24 Feb 13:08:02 13:11:00 30° 16° (NNE) 13:13:58 437.550
BUGSAT 1 24 Feb 13:09:00 13:11:35 16° 268° (W) 13:14:11 437.445
Oscar 19 24 Feb 13:19:18 13:24:21 54° 260° (W) 13:29:24 437.125/150
50 SAT 24 Feb 13:27:11 13:30:18 31° 290° (WNW) 13:33:25 437.505
DX 1 24 Feb 13:29:20 13:33:39 67° 287° (WNW) 13:37:58 434.975-435.025
VELOX 1 24 Feb 13:34:20 13:38:07 28° 293° (WNW) 13:41:54 145.980
Tancredo 1 24 Feb 13:36:38 13:39:43 40° 21° (NNE) 13:42:47 437.200
AO-85 24 Feb 13:43:10 13:47:02 59° 239° (WSW) 13:50:56 145.980
UKube-1 24 Feb 13:43:49 13:48:07 65° 287° (WNW) 13:52:22 .
ITAMSAT 1 24 Feb 13:50:48 13:55:28 34° 66° (ENE) 14:00:09 435.822/435.867
SPROUT 24 Feb 13:51:30 13:54:50 22° 294° (WNW) 13:58:10 437.525
Gurwin Techsat 1B 24 Feb 13:54:58 14:00:04 47° 261° (W) 14:05:13 435.225
BEESAT 3 24 Feb 13:56:03 13:58:42 17° 39° (NE) 14:01:22 437.485
BEESAT 2 24 Feb 14:31:43 14:34:25 17° 39° (NE) 14:37:07 435.950
ISS 24 Feb 14:44:24 14:47:41 67° 214° (SW) 14:50:55 437.550
AO-7 24 Feb 14:51:07 14:59:30 90° 42° (NE) 15:07:55 .
ITUPSAT 1 24 Feb 14:55:43 15:00:24 49° 100° (E) 15:05:02 437.325
BEESAT 24 Feb 15:03:01 15:07:47 60° 101° (ESE) 15:12:29 436.000
Tancredo 1 24 Feb 15:13:00 15:16:00 34° 219° (SW) 15:18:56 437.200
RS-15 24 Feb 15:25:40 15:30:26 13° 92° (E) 15:35:15 29.354- 29.394
ITAMSAT 1 24 Feb 15:30:15 15:34:54 33° 264° (W) 15:39:36 435.822/435.867
BEESAT 3 24 Feb 15:32:45 15:36:46 71° 237° (WSW) 15:40:44 437.485
MOZHAYETS 4 24 Feb 15:33:37 15:38:05 46° 99° (E) 15:42:28
PCSat 24 Feb 15:46:26 15:50:49 26° 108° (ESE) 15:55:14 145.827
BEESAT 2 24 Feb 16:08:36 16:12:39 71° 238° (WSW) 16:16:40 435.950
KKS-1 24 Feb 16:12:28 16:16:24 30° 96° (E) 16:20:20 437.445
XW-2D 24 Feb 16:20:11 16:21:34 12° 62° (ENE) 16:22:55 145.860 - 145.880
XW-2B 24 Feb 16:24:49 16:26:33 13° 63° (ENE) 16:28:16 145.730 - 145.750
CUBESAT XI-V 24 Feb 16:30:22 16:34:24 29° 95° (E) 16:38:24 437.345
CUTE-I 24 Feb 16:31:20 16:35:23 22° 61° (ENE) 16:39:27 437.470
XW-2C 24 Feb 16:32:43 16:35:03 16° 64° (ENE) 16:37:24 145.795 - 145.815
ITUPSAT 1 24 Feb 16:34:19 16:37:53 21° 297° (WNW) 16:41:26 437.325
BEESAT 24 Feb 16:41:55 16:45:05 18° 299° (WNW) 16:48:15 436.000
HO-68 24 Feb 16:42:15 16:44:56 12° 46° (NE) 16:47:38 435.675
AO-7 24 Feb 16:47:33 16:53:18 20° 270° (W) 16:59:05 .
LilacSat-2 24 Feb 16:47:34 16:50:40 23° 68° (ENE) 16:53:48 437.200
NUDT-PHONESAT 24 Feb 16:47:55 16:50:33 18° 66° (ENE) 16:53:12 437.300
STARS 24 Feb 16:49:20 16:53:21 33° 97° (E) 16:57:21 437.465
NO-84 24 Feb 16:50:18 16:52:41 19° 128° (SE) 16:55:15 435.350 FM
MOZHAYETS 4 24 Feb 17:11:31 17:14:55 21° 296° (WNW) 17:18:17
RS-15 24 Feb 17:28:27 17:40:03 61° 114° (ESE) 17:52:04 29.354- 29.394
PCSat 24 Feb 17:28:38 17:33:54 51° 307° (NW) 17:39:12 145.827
DOVE 4 24 Feb 17:32:01 17:36:08 78° 76° (ENE) 17:40:20 437.250
M-CUBED/EXP-1 PRIME 24 Feb 17:36:35 17:40:12 44° 106° (ESE) 17:44:04 437.505
KAITUO 1B 24 Feb 17:44:13 17:48:02 83° 76° (ENE) 17:51:52 145.475/437.950
XW-2F 24 Feb 17:47:20 17:51:10 76° 259° (W) 17:55:02 145.980 - 146.000
KKS-1 24 Feb 17:49:03 17:52:54 29° 293° (WNW) 17:56:45 437.445
XW-2D 24 Feb 17:51:25 17:55:14 64° 259° (W) 17:59:05 145.860 - 145.880
SEEDS 24 Feb 17:55:11 17:56:37 12° 61° (ENE) 17:58:03 437.485
XW-2B 24 Feb 17:56:29 18:00:16 57° 260° (W) 18:04:06 145.730 - 145.750
XW-2C 24 Feb 18:05:13 18:08:54 44° 261° (W) 18:12:38 145.795 - 145.815
CUBESAT XI-V 24 Feb 18:07:43 18:11:44 30° 292° (WNW) 18:15:43 437.345
CUTE-I 24 Feb 18:09:48 18:15:01 56° 259° (W) 18:20:18 437.470
XW-2A 24 Feb 18:15:22 18:18:27 33° 71° (ENE) 18:21:34 145.665 - 145.685
NUDT-PHONESAT 24 Feb 18:20:47 18:24:14 34° 263° (W) 18:27:44 437.300
LilacSat-2 24 Feb 18:21:28 18:24:50 28° 264° (W) 18:28:14 437.200
HO-68 24 Feb 18:24:11 18:31:08 55° 67° (ENE) 18:38:05 435.675
STARS 24 Feb 18:25:53 18:29:34 26° 294° (WNW) 18:33:15 437.465
NO-84 24 Feb 18:26:45 18:30:01 51° 328° (NNW) 18:33:38 435.350 FM
CUTE 1.7 + AOD 2 24 Feb 18:28:46 18:32:42 36° 70° (ENE) 18:36:38 437.475
CUBEBUG 2 24 Feb 18:37:52 18:41:22 23° 65° (ENE) 18:44:58 437.445
AO-73 24 Feb 18:54:58 18:57:01 13° 60° (ENE) 18:59:03 145.935
Oscar 11 24 Feb 19:02:54 19:04:54 13° 61° (ENE) 19:06:56 .
M-CUBED/EXP-1 PRIME 24 Feb 19:12:01 19:14:26 17° 300° (WNW) 19:16:55 437.505
PCSat 24 Feb 19:16:15 19:18:38 13° 329° (NNW) 19:21:02 145.827
UWE-3 24 Feb 19:16:32 19:20:35 35° 69° (ENE) 19:24:46 435.000/436.395/437.385
AAUSAT CUBESAT 2 24 Feb 19:19:43 19:23:39 43° 72° (ENE) 19:27:35 437.432
SEEDS 24 Feb 19:27:27 19:31:42 78° 259° (W) 19:35:57 437.485
ZACube-1 24 Feb 19:39:34 19:43:39 37° 69° (ENE) 19:47:51 437.345
RS-15 24 Feb 19:41:18 19:53:00 52° 320° (NW) 20:05:03 29.354- 29.394
STRAND 1 24 Feb 19:47:22 19:52:33 76° 104° (ESE) 19:57:41 437.568
XW-2A 24 Feb 19:49:25 19:51:22 14° 268° (W) 19:53:20 145.665 - 145.685
CUTE 1.7 + AOD 2 24 Feb 20:05:20 20:08:37 21° 267° (W) 20:11:56 437.475
NO-84 24 Feb 20:05:47 20:08:26 19° 349° (N) 20:11:15 435.350 FM
HO-68 24 Feb 20:12:57 20:19:09 31° 265° (W) 20:25:24 435.675
CUBEBUG 2 24 Feb 20:13:36 20:17:44 39° 263° (W) 20:22:02 437.445
AO-73 24 Feb 20:28:08 20:32:35 78° 258° (WSW) 20:37:09 145.935
Oscar 11 24 Feb 20:36:08 20:40:28 71° 258° (WSW) 20:44:51 .
YUBILEINY 24 Feb 20:44:33 20:52:31 37° 69° (ENE) 21:00:24 435.215
UWE-3 24 Feb 20:53:28 20:57:06 25° 267° (W) 21:00:52 435.000/436.395/437.385
AAUSAT CUBESAT 2 24 Feb 20:56:32 20:59:19 17° 268° (W) 21:02:06 437.432
DELFI C3 24 Feb 20:59:48 21:03:44 68° 75° (ENE) 21:07:40 145.870
UNISAT 6 24 Feb 21:14:17 21:16:40 14° 89° (E) 21:19:02 437.425
TIGRISAT 24 Feb 21:15:03 21:17:11 13° 88° (E) 21:19:20 435.000
ZACube-1 24 Feb 21:16:27 21:20:02 23° 267° (W) 21:23:41 437.345
PRISM 24 Feb 21:17:49 21:21:25 29° 97° (E) 21:24:59 437.425
STRAND 1 24 Feb 21:28:01 21:31:06 16° 301° (WNW) 21:34:11 437.568
NO-84 24 Feb 21:44:27 21:47:15 19° 11° (N) 21:50:14 435.350 FM
LO-87 24 Feb 21:57:38 22:00:55 36° 72° (ENE) 22:04:12 145.935 - 145.965
RS-15 24 Feb 21:59:04 22:09:22 29° 352° (N) 22:19:41 29.354- 29.394
FO-29 24 Feb 22:06:07 22:12:41 30° 90° (E) 22:18:44 435.910
SO-50 24 Feb 22:15:54 22:20:16 40° 118° (ESE) 22:24:36 436.795
ESTCUBE 1 24 Feb 22:27:35 22:31:54 47° 71° (ENE) 22:36:14 437.505/2401.250
YUBILEINY 24 Feb 22:41:14 22:49:36 53° 270° (W) 22:57:54 435.215
QB50P2 24 Feb 22:44:47 22:45:30 10° 88° (E) 22:46:12 145.880/145.840
UNISAT 6 24 Feb 22:49:09 22:53:51 69° 286° (WNW) 22:58:29 437.425
TIGRISAT 24 Feb 22:49:40 22:54:23 73° 286° (WNW) 22:59:02 435.000
DX 1 24 Feb 22:52:20 22:54:40 14° 61° (ENE) 22:57:00 434.975-435.025
PRISM 24 Feb 22:53:16 22:56:35 25° 293° (WNW) 22:59:54 437.425
VELOX 1 24 Feb 22:56:33 23:00:26 32° 68° (ENE) 23:04:21 145.980
AIST 2D 24 Feb 22:59:34 23:02:20 21° 94° (E) 23:05:04 435.315
O/OREOS (USA 219) 24 Feb 23:02:12 23:06:38 68° 110° (ESE) 23:11:07 437.305
UKube-1 24 Feb 23:05:53 23:08:12 14° 61° (ENE) 23:10:32 .
SPROUT 24 Feb 23:09:56 23:13:46 34° 69° (ENE) 23:17:40 437.525
NO-84 24 Feb 23:21:50 23:25:44 45° 31° (NNE) 23:29:52 435.350 FM
LO-87 24 Feb 23:32:32 23:34:32 14° 268° (W) 23:36:33 145.935 - 145.965
DUCHIFAT 1 24 Feb 23:47:25 23:51:26 39° 98° (E) 23:55:25 145.980
FO-29 24 Feb 23:50:33 23:58:08 60° 291° (WNW) 00:05:03 435.910
SO-50 24 Feb 23:56:42 00:00:50 30° 316° (NW) 00:04:55 436.795
EO-79 24 Feb 23:57:15 00:01:30 60° 100° (E) 00:05:45 145.935-145.965
50 SAT 25 Feb 00:02:06 00:05:35 66° 258° (WSW) 00:09:04 437.505
ESTCUBE 1 25 Feb 00:05:47 00:08:57 19° 268° (W) 00:12:07 437.505/2401.250
POLYITAN 1 25 Feb 00:14:32 00:18:52 88° 289° (WNW) 00:23:10 437.675
NANOSAT C BR1 25 Feb 00:14:40 00:18:58 86° 99° (E) 00:23:14 145.865
RS-15 25 Feb 00:15:24 00:26:39 37° 27° (NNE) 00:37:37 29.354- 29.394
QB50P2 25 Feb 00:17:30 00:21:49 76° 284° (WNW) 00:26:05 145.880/145.840
DX 1 25 Feb 00:26:04 00:30:21 63° 258° (WSW) 00:34:40 434.975-435.025
PCSat 25 Feb 00:31:39 00:36:34 33° 47° (NE) 00:41:25 145.827
AIST 2D 25 Feb 00:32:33 00:35:32 25° 291° (WNW) 00:38:31 435.315
VELOX 1 25 Feb 00:33:17 00:36:55 25° 265° (W) 00:40:34 145.980
BEESAT 25 Feb 00:37:02 00:38:30 11° 57° (ENE) 00:39:58 436.000
UKube-1 25 Feb 00:39:28 00:43:44 63° 258° (WSW) 00:48:01 .
O/OREOS (USA 219) 25 Feb 00:43:46 00:46:33 16° 310° (NW) 00:49:21 437.305
SPROUT 25 Feb 00:46:25 00:49:46 22° 266° (W) 00:53:10 437.525
BUGSAT 1 25 Feb 00:47:01 00:51:13 62° 101° (E) 00:55:26 437.445
NO-84 25 Feb 00:59:35 01:03:26 35° 227° (SW) 01:07:26 435.350 FM
DUCHIFAT 1 25 Feb 01:23:39 01:26:51 21° 295° (WNW) 01:30:03 145.980
Oscar 19 25 Feb 01:29:04 01:34:00 46° 99° (E) 01:38:54 437.125/150
EO-79 25 Feb 01:34:23 01:36:47 15° 298° (WNW) 01:39:12 145.935-145.965
FO-29 25 Feb 01:37:42 01:41:30 15° 312° (NW) 01:45:11 435.910
NANOSAT C BR1 25 Feb 01:52:58 01:54:00 11° 301° (WNW) 01:55:03 145.865
POLYITAN 1 25 Feb 01:53:35 01:53:56 10° 302° (WNW) 01:54:17 437.675
ITUPSAT 1 25 Feb 02:03:44 02:08:30 69° 73° (ENE) 02:13:19 437.325
Gurwin Techsat 1B 25 Feb 02:09:10 02:14:27 61° 101° (E) 02:19:42 435.225
BEESAT 25 Feb 02:10:42 02:15:29 82° 75° (ENE) 02:20:19 436.000
PCSat 25 Feb 02:14:56 02:20:05 44° 247° (WSW) 02:25:11 145.827
BUGSAT 1 25 Feb 02:23:50 02:26:06 14° 298° (WNW) 02:28:22 437.445
RS-15 25 Feb 02:28:40 02:41:08 86° 55° (NE) 02:53:02 29.354- 29.394
MOZHAYETS 4 25 Feb 02:36:40 02:41:11 53° 72° (ENE) 02:45:43
AO-7 25 Feb 02:51:43 02:58:30 27° 93° (E) 03:05:12 .
Oscar 19 25 Feb 03:08:57 03:13:02 25° 297° (WNW) 03:17:07 437.125/150
KKS-1 25 Feb 03:11:55 03:15:53 34° 68° (ENE) 03:19:54 437.445
CUBESAT XI-V 25 Feb 03:34:59 03:39:12 35° 69° (ENE) 03:43:26 437.345
ITAMSAT 1 25 Feb 03:40:35 03:45:52 77° 103° (ESE) 03:51:05 435.822/435.867
ITUPSAT 1 25 Feb 03:44:18 03:46:49 14° 270° (W) 03:49:20 437.325
STARS 25 Feb 03:47:19 03:51:18 36° 69° (ENE) 03:55:19 437.465
Gurwin Techsat 1B 25 Feb 03:50:05 03:53:56 21° 299° (WNW) 03:57:46 435.225
BEESAT 25 Feb 03:52:16 03:53:52 11° 272° (W) 03:55:29 436.000
AO-85 25 Feb 03:59:02 04:02:55 28° 116° (ESE) 04:06:34 145.980
MOZHAYETS 4 25 Feb 04:15:35 04:18:38 17° 269° (W) 04:21:44
M-CUBED/EXP-1 PRIME 25 Feb 04:24:44 04:28:00 75° 70° (ENE) 04:31:15 437.505
RS-15 25 Feb 04:42:30 04:52:08 29° 259° (WSW) 05:01:29 29.354- 29.394
AO-7 25 Feb 04:43:39 04:51:56 72° 293° (WNW) 05:00:09 .
KKS-1 25 Feb 04:48:51 04:52:30 25° 265° (W) 04:56:10 437.445
SO-50 25 Feb 05:06:31 05:08:28 13° 30° (NNE) 05:10:26 436.795
CUBESAT XI-V 25 Feb 05:12:44 05:16:38 26° 266° (W) 05:20:31 437.345
ITAMSAT 1 25 Feb 05:21:30 05:24:41 16° 302° (WNW) 05:27:51 435.822/435.867
XW-2D 25 Feb 05:24:14 05:25:46 12° 90° (E) 05:27:17 145.860 - 145.880
STARS 25 Feb 05:24:16 05:27:44 23° 266° (W) 05:31:14 437.465
BEESAT 3 25 Feb 05:26:27 05:27:57 12° 109° (ESE) 05:29:27 437.485
STRAND 1 25 Feb 05:27:49 05:31:17 19° 60° (ENE) 05:34:46 437.568
DOVE 4 25 Feb 05:28:55 05:32:23 20° 93° (E) 05:35:58 437.250
XW-2B 25 Feb 05:28:57 05:30:51 13° 90° (E) 05:32:43 145.730 - 145.750
XW-2C 25 Feb 05:37:02 05:39:34 17° 92° (E) 05:42:04 145.795 - 145.815
AO-85 25 Feb 05:39:06 05:43:13 36° 312° (NW) 05:47:06 145.980
NUDT-PHONESAT 25 Feb 05:50:11 05:52:57 19° 93° (E) 05:55:41 437.300
LilacSat-2 25 Feb 05:52:52 05:56:10 26° 95° (E) 05:59:24 437.200
BEESAT 2 25 Feb 06:03:35 06:05:18 12° 109° (ESE) 06:07:01 435.950
CUTE-I 25 Feb 06:25:00 06:30:16 52° 100° (E) 06:35:30 437.470
AO-7 25 Feb 06:37:58 06:43:19 19° 314° (NW) 06:48:39 .
SO-50 25 Feb 06:45:28 06:49:56 57° 51° (NE) 06:54:20 436.795
KAITUO 1B 25 Feb 06:47:52 06:51:41 85° 285° (WNW) 06:55:25 145.475/437.950
XW-2F 25 Feb 06:52:04 06:55:51 63° 286° (WNW) 06:59:36 145.980 - 146.000
XW-2D 25 Feb 06:56:33 07:00:17 52° 287° (WNW) 07:04:00 145.860 - 145.880
BEESAT 3 25 Feb 07:01:05 07:04:59 68° 306° (NW) 07:08:58 437.485
XW-2B 25 Feb 07:01:37 07:05:19 47° 287° (WNW) 07:08:59 145.730 - 145.750
STRAND 1 25 Feb 07:04:51 07:09:56 65° 258° (WSW) 07:15:06 437.568
DOVE 4 25 Feb 07:05:46 07:10:16 49° 288° (WNW) 07:15:01 437.250
XW-2A 25 Feb 07:08:20 07:11:24 28° 96° (E) 07:14:27 145.665 - 145.685
XW-2C 25 Feb 07:10:22 07:13:56 37° 289° (WNW) 07:17:27 145.795 - 145.815
SEEDS 25 Feb 07:10:50 07:13:20 15° 91° (E) 07:15:49 437.485
NUDT-PHONESAT 25 Feb 07:23:35 07:26:57 31° 290° (WNW) 07:30:17 437.300
ISS 25 Feb 07:26:12 07:28:12 15° 133° (SE) 07:30:12 437.550
LilacSat-2 25 Feb 07:27:12 07:30:21 24° 292° (WNW) 07:33:27 437.200
O/OREOS (USA 219) 25 Feb 07:31:51 07:35:24 21° 53° (NE) 07:38:56 437.305
HO-68 25 Feb 07:37:27 07:44:22 49° 100° (E) 07:51:13 435.675
BEESAT 2 25 Feb 07:38:36 07:42:32 66° 307° (NW) 07:46:32 435.950
CUTE 1.7 + AOD 2 25 Feb 07:47:17 07:51:28 58° 100° (E) 07:55:35 437.475
Tancredo 1 25 Feb 07:51:44 07:54:31 26° 138° (SE) 07:57:18 437.200
